Weather History for KHRJ - May, 2013

Change the Weather History Date:

Thursday, May 16, 2013

  Actual Average (KFAY) Record (KFAY)
Temperature  
Mean Temperature 76 °F 71 °F  
Max Temperature 88 °F 82 °F 96 °F (1933)
Min Temperature 63 °F 59 °F 40 °F (1996)
Degree Days  
Heating Degree Days 0 1  
Month to date heating degree days 22  
Since 1 July heating degree days 2729  
Cooling Degree Days 10 6  
Month to date cooling degree days 78  
Year to date cooling degree days 161  
Growing Degree Days 26 (Base 50)    
Moisture  
Dew Point 56 °F    
Average Humidity 55    
Maximum Humidity 94    
Minimum Humidity 26    
Precipitation  
Precipitation 0.00 in 0.12 in 1.57 in (1934)
Month to date precipitation 1.37  
Year to date precipitation 13.80  
Sea Level Pressure  
Sea Level Pressure 29.96 in    
Wind  
Wind Speed 3 mph (WSW)    
Max Wind Speed 12 mph    
Max Gust Speed 20 mph    
Visibility 10 miles    
Events      
T = Trace of Precipitation, MM = Missing Value Source: NWS Daily Summary

Daily Weather History Graph

Daily Weather History Graph

Search for Another Location

Airport or City:

Trip Planner

Search our weather history database for the weather conditions in past years. The results will help you decide how hot, cold, wet, or windy it might be!

Date:

Astronomy

May. 16, 2013 Rise Set
Actual Time 6:09 AM EDT 8:13 PM EDT
Civil Twilight 5:41 AM EDT 8:41 PM EDT
Nautical Twilight 5:06 AM EDT 9:16 PM EDT
Astronomical Twilight 4:29 AM EDT 9:53 PM EDT
Moon 11:37 AM EDT (5/16) 12:36 AM EDT (5/16)
Length of Visible Light 15h 00m
Length of Day
14h 03m
Waxing Crescent, 35% of the Moon is Illuminated
May 16
Waxing Crescent
May 18
First Quarter
May 25
Full
May 31
Last Quarter
Jun 8
New

Hourly Weather History & Observations

Time (EDT) Temp. Heat Index Dew Point Humidity Pressure Visibility Wind Dir Wind Speed Gust Speed Precip Events Conditions
12:15 AM 71.2 °F - 59.4 °F 66% 29.95 in 10.0 mi South 3.5 mph - N/A   Clear
12:35 AM 70.5 °F - 59.5 °F 68% 29.95 in 10.0 mi Calm Calm - N/A   Clear
12:55 AM 70.3 °F - 59.2 °F 68% 29.95 in 10.0 mi Calm Calm - N/A   Clear
1:15 AM 69.4 °F - 59.2 °F 70% 29.95 in 10.0 mi South 5.8 mph - N/A   Clear
1:35 AM 68.9 °F - 59.5 °F 72% 29.94 in 10.0 mi South 4.6 mph - N/A   Clear
1:55 AM 68.4 °F - 59.9 °F 74% 29.94 in 10.0 mi South 5.8 mph - N/A   Clear
2:15 AM 67.3 °F - 60.3 °F 78% 29.93 in 10.0 mi South 4.6 mph - N/A   Clear
2:35 AM 67.1 °F - 59.9 °F 78% 29.93 in 10.0 mi Calm Calm - N/A   Clear
2:55 AM 67.5 °F - 59.2 °F 75% 29.92 in 10.0 mi South 3.5 mph - N/A   Clear
3:15 AM 67.1 °F - 59.4 °F 76% 29.92 in 10.0 mi South 3.5 mph - N/A   Clear
3:35 AM 66.6 °F - 59.4 °F 78% 29.92 in 10.0 mi Calm Calm - N/A   Clear
3:55 AM 66.4 °F - 59.4 °F 78% 29.92 in 10.0 mi Calm Calm - N/A   Clear
4:15 AM 65.5 °F - 59.5 °F 81% 29.92 in 10.0 mi Calm Calm - N/A   Clear
4:35 AM 65.7 °F - 59.4 °F 80% 29.92 in 10.0 mi Calm Calm - N/A   Clear
4:55 AM 65.5 °F - 59.5 °F 81% 29.92 in 10.0 mi Calm Calm - N/A   Clear
5:15 AM 64.9 °F - 59.2 °F 82% 29.93 in 10.0 mi Calm Calm - N/A   Clear
5:35 AM 64.2 °F - 60.1 °F 86% 29.93 in 10.0 mi South 3.5 mph - N/A   Clear
5:55 AM 63.7 °F - 61.7 °F 93% 29.93 in 10.0 mi Calm Calm - N/A   Clear
6:15 AM 63.5 °F - 61.7 °F 94% 29.94 in 10.0 mi Calm Calm - N/A   Clear
6:35 AM 64.0 °F - 60.8 °F 89% 29.94 in 10.0 mi Calm Calm - N/A   Clear
6:55 AM 64.0 °F - 61.0 °F 90% 29.95 in 10.0 mi Calm Calm - N/A   Clear
7:15 AM 64.0 °F - 61.7 °F 92% 29.95 in 10.0 mi Calm Calm - N/A   Clear
7:35 AM 64.9 °F - 61.2 °F 88% 29.96 in 10.0 mi Calm Calm - N/A   Clear
7:55 AM 66.4 °F - 61.5 °F 84% 29.96 in 10.0 mi Calm Calm - N/A   Clear
8:15 AM 69.6 °F - 59.9 °F 71% 29.97 in 10.0 mi Calm Calm - N/A   Clear
8:35 AM 70.9 °F - 60.1 °F 69% 29.97 in 10.0 mi West 3.5 mph - N/A   Clear
8:55 AM 72.1 °F - 60.1 °F 66% 29.98 in 10.0 mi Calm Calm - N/A   Clear
9:15 AM 74.1 °F - 60.6 °F 63% 29.98 in 10.0 mi Calm Calm - N/A   Clear
9:35 AM 77.0 °F - 60.1 °F 56% 29.98 in 10.0 mi West 3.5 mph - N/A   Clear
9:55 AM 78.1 °F - 60.3 °F 54% 29.98 in 10.0 mi Calm Calm - N/A   Clear
10:15 AM 78.3 °F - 59.7 °F 53% 29.99 in 10.0 mi Calm Calm - N/A   Clear
10:35 AM 79.9 °F - 58.3 °F 48% 29.99 in 10.0 mi WNW 4.6 mph - N/A   Clear
10:55 AM 80.2 °F 80.5 °F 57.4 °F 45% 30.00 in 10.0 mi WNW 3.5 mph - N/A   Clear
11:15 AM 82.6 °F 82.1 °F 56.5 °F 41% 30.00 in 10.0 mi Calm Calm - N/A   Clear
11:35 AM 84.0 °F 82.5 °F 53.1 °F 34% 30.00 in 10.0 mi West 5.8 mph - N/A   Clear
11:55 AM 85.1 °F - 50.0 °F 30% 30.00 in 10.0 mi WNW 3.5 mph - N/A   Clear
12:15 PM 84.7 °F - 49.6 °F 30% 29.99 in 10.0 mi West 3.5 mph - N/A   Clear
12:35 PM 86.4 °F - 49.8 °F 28% 29.99 in 10.0 mi WNW 3.5 mph - N/A   Clear
12:55 PM 86.0 °F - 49.6 °F 28% 29.98 in 10.0 mi WNW 6.9 mph - N/A   Clear
1:15 PM 86.2 °F - 50.0 °F 29% 29.98 in 10.0 mi West 6.9 mph - N/A   Clear
1:35 PM 85.8 °F - 49.5 °F 28% 29.98 in 10.0 mi West 4.6 mph - N/A   Clear
1:55 PM 86.4 °F - 50.5 °F 29% 29.96 in 10.0 mi West 5.8 mph - N/A   Clear
2:15 PM 86.5 °F - 50.7 °F 29% 29.96 in 10.0 mi West 4.6 mph - N/A   Clear
2:35 PM 88.0 °F - 48.9 °F 26% 29.95 in 10.0 mi West 6.9 mph - N/A   Clear
2:55 PM 86.7 °F - 49.6 °F 28% 29.95 in 10.0 mi West 4.6 mph - N/A   Clear
3:15 PM 86.9 °F - 50.9 °F 29% 29.94 in 10.0 mi West 4.6 mph - N/A   Clear
3:35 PM 86.0 °F - 50.4 °F 29% 29.94 in 10.0 mi West 5.8 mph - N/A   Clear
3:55 PM 85.6 °F - 50.9 °F 30% 29.94 in 10.0 mi West 5.8 mph - N/A   Clear
4:15 PM 86.0 °F - 50.5 °F 29% 29.94 in 10.0 mi West 4.6 mph - N/A   Clear
4:35 PM 86.2 °F - 48.7 °F 27% 29.94 in 10.0 mi WSW 11.5 mph 19.6 mph N/A   Clear
4:55 PM 85.3 °F - 49.1 °F 28% 29.94 in 10.0 mi WSW 9.2 mph - N/A   Clear
5:15 PM 84.2 °F - 49.6 °F 30% 29.94 in 10.0 mi WSW 6.9 mph - N/A   Clear
5:35 PM 83.5 °F - 51.1 °F 32% 29.94 in 10.0 mi Calm Calm - N/A   Clear
5:55 PM 83.7 °F - 52.7 °F 34% 29.93 in 10.0 mi WSW 4.6 mph - N/A   Clear
6:15 PM 83.3 °F - 52.2 °F 34% 29.93 in 10.0 mi WSW 4.6 mph - N/A   Clear
6:35 PM 81.9 °F - 52.7 °F 36% 29.94 in 10.0 mi WSW 3.5 mph - N/A   Clear
6:55 PM 81.1 °F 80.7 °F 54.0 °F 39% 29.94 in 10.0 mi WSW 3.5 mph - N/A   Clear
7:15 PM 80.6 °F 80.4 °F 54.3 °F 40% 29.95 in 10.0 mi Calm Calm - N/A   Clear
7:35 PM 79.9 °F - 54.5 °F 41% 29.95 in 10.0 mi Calm Calm - N/A   Clear
7:55 PM 79.2 °F - 55.4 °F 44% 29.95 in 10.0 mi Calm Calm - N/A   Clear
8:15 PM 77.0 °F - 58.5 °F 53% 29.95 in 10.0 mi Calm Calm - N/A   Clear
8:35 PM 77.2 °F - 57.0 °F 50% 29.97 in 10.0 mi SW 4.6 mph - N/A   Clear
8:55 PM 77.2 °F - 57.2 °F 50% 29.98 in 10.0 mi WSW 3.5 mph - N/A   Clear
9:15 PM 76.5 °F - 57.2 °F 51% 29.98 in 10.0 mi Calm Calm - N/A   Clear
9:35 PM 76.1 °F - 57.6 °F 53% 29.99 in 10.0 mi SW 4.6 mph - N/A   Clear
9:55 PM 75.7 °F - 57.7 °F 53% 29.99 in 10.0 mi SW 3.5 mph - N/A   Clear
10:15 PM 75.2 °F - 58.1 °F 55% 29.99 in 10.0 mi SW 3.5 mph - N/A   Clear
10:35 PM 74.3 °F - 58.1 °F 57% 29.99 in 10.0 mi SW 3.5 mph - N/A   Clear
10:55 PM 73.6 °F - 58.1 °F 58% 30.00 in 10.0 mi SW 3.5 mph - N/A   Clear
11:15 PM 73.4 °F - 58.3 °F 59% 30.01 in 10.0 mi WSW 4.6 mph - N/A   Clear
11:35 PM 72.5 °F - 59.0 °F 62% 30.00 in 10.0 mi SW 3.5 mph - N/A   Clear
11:55 PM 72.7 °F - 59.4 °F 63% 30.00 in 10.0 mi SW 4.6 mph - N/A   Clear